[[{"header":{"parameterUnit":"m.s-1","parameterCategory":2,"la1":30.2991,"la2":30.254,"lo1":-89.0895,"lo2":-89.0444,"dy":0.0017,"dx":0.0017,"nx":28,"ny":28,"refTime":"2025-03-12T09:00:00:Z","depth":"0","parameterNumber":2,"parameterNumberName":"U-component_of_CURRENTS"},"data":[0,0,0,0,0,0,0,0,0,0,0,0,0,0,0,0,0,0,0,0,0,0,0,0,0,0,0,0,0,0,0,0,0,0,0,0,0,0,0,0,0,0,0,0,0,0,0,0,0,0,0,0,0,0,0,0,0,0,0.2335,0.2336,0,0.2378,0.2378,0.2378,0.2412,0.2413,0.2413,0.2414,0.2456,0.2457,0.2458,0,0,0,0,0,0,0,0,0,0,0,0,0,0.2298,0.2299,0.2335,0.2336,0.2337,0.2378,0.2378,0.2378,0.2412,0.2413,0.2413,0.2414,0.2456,0.2457,0.2458,0,0,0,0,0,0,0,0,0,0,0,0,0,0.2323,0.2299,0.2335,0.236,0.2363,0.2377,0.2378,0.2378,0.2412,0.2413,0.2414,0.2414,0.2456,0.2457,0.2458,0.2448,0,0,0.2461,0.2461,0,0,0,0,0,0,0,0,0.2321,0.2324,0.2356,0.2358,0.2361,0.2392,0.2381,0.2402,0.2412,0.2391,0.2414,0.2415,0.2436,0.2438,0.2442,0.245,0.2451,0.2461,0.2461,0.2462,0.2462,0,0,0,0,0,0,0,0.232,0.2322,0.235,0.2356,0.236,0.2374,0.2378,0.2385,0.2407,0.2393,0.2396,0.2404,0.2437,0.2441,0.2443,0.2452,0.2461,0.2462,0.2462,0.2463,0.2434,0.2432,0,0,0,0,0,0,0.2317,0.2321,0.2349,0.2351,0.2345,0.2374,0.2379,0.238,0.2407,0.2412,0.2403,0.2405,0.2439,0.2442,0.2445,0.2424,0.2462,0.2463,0.2463,0.2435,0.2433,0.2432,0,0,0,0,0,0,0.2316,0.2319,0.2347,0.2339,0.2344,0.2374,0.2375,0.238,0.2384,0.2415,0.242,0.2402,0.2439,0.2443,0.244,0.2426,0.2463,0.2464,0.2437,0.2434,0.2433,0.2389,0,0,0,0,0,0,0.2314,0.2318,0.2311,0.2339,0.2344,0.2351,0.2375,0.2381,0.2389,0.2392,0.2415,0.242,0.244,0.2438,0.244,0.2428,0.2465,0.2438,0.2436,0.2433,0.2392,0.2385,0.238,0,0,0,0,0,0.2313,0.2302,0.231,0.2313,0.2336,0.2351,0.2354,0.2378,0.2388,0.2384,0.2394,0.242,0.2424,0.2437,0.2441,0.2429,0.2439,0.2436,0.2433,0.2395,0.2387,0.238,0,0,0,0,0,0,0.228,0.2305,0.2315,0.2311,0.2328,0.2357,0.2354,0.2371,0.2376,0.2378,0.2404,0.2409,0.2405,0.2414,0.2429,0.241,0.2435,0.2432,0.2404,0.2397,0.2391,0.2375,0.2465,0,0,0,0,0,0.2269,0.2267,0.2296,0.229,0.2296,0.2322,0.2329,0.2348,0.2361,0.2365,0.238,0.2388,0.2394,0.2393,0.2404,0.2389,0.2406,0.2381,0.2375,0.237,0.2356,0.2369,0.2363,0.2422,0.2422,0.2422,0,0,0.2256,0.2268,0.2267,0.2283,0.2295,0.2296,0.2327,0.2336,0.2331,0.2368,0.2355,0.2374,0.2387,0.2377,0.2374,0.2382,0.2363,0.2366,0.2362,0.2351,0.2365,0.236,0.2355,0.242,0.242,0.2421,0,0,0.2227,0.2236,0.2226,0.2237,0.2257,0.2272,0.2273,0.2297,0.2301,0.2294,0.232,0.2322,0.2328,0.2333,0.2336,0.2298,0.2338,0.2304,0.2255,0.2267,0.2263,0.2259,0.2283,0.2281,0.2293,0.2293,0.2293,0,0.2205,0.2204,0.2225,0.2219,0.2224,0.2257,0.2249,0.2253,0.2272,0.2261,0.2282,0.2282,0.2303,0.2283,0.2274,0.2285,0.2305,0.2286,0.2261,0.2257,0.2254,0.228,0.2279,0.2291,0.2291,0.2291,0.2291,0,0.2179,0.2174,0.2168,0.217,0.2174,0.2175,0.219,0.2183,0.2192,0.2197,0.2184,0.2209,0.2207,0.2216,0.2235,0.2218,0.2244,0.2262,0.2283,0.2246,0.2275,0.2275,0.2287,0.2288,0.2289,0.2289,0,0,0.2132,0.2147,0.2144,0.214,0.2152,0.2154,0.2131,0.2121,0.2099,0.211,0.2083,0.2095,0.2114,0.2118,0.2147,0.2153,0.2162,0.2194,0.2196,0.2224,0.22,0.2111,0.2104,0.2182,0.2182,0.2181,0.2232,0,0.2102,0.2094,0.2104,0.2083,0.2079,0.209,0.2067,0.2059,0.2053,0.2033,0.2044,0.204,0.2075,0.2085,0.2092,0.2149,0.2158,0.2147,0.2224,0.2226,0.2158,0.2098,0.1928,0.1948,0.2232,0.2232,0.2232,0,0.2069,0.2071,0.2058,0.2047,0.2043,0.203,0.2,0.1986,0.1959,0.1956,0.1943,0.1963,0.1969,0.2013,0.2067,0.2061,0.212,0.2163,0.2167,0.2095,0.2136,0.2028,0.1938,0.1811,0.2233,0.2233,0.2233,0,0.2039,0.203,0.2024,0.2024,0.2018,0.1996,0.1984,0.1956,0.1932,0.1909,0.1894,0.1903,0.1917,0.1974,0.2054,0.2069,0.212,0.2156,0.2129,0.2126,0.1997,0.1981,0.1792,0.219,0.2189,0.2189,0.2189,0,0.2007,0.1988,0.201,0.2004,0.1976,0.1975,0.193,0.1915,0.1884,0.1847,0.1859,0.1839,0.191,0.1944,0.2027,0.2059,0.21,0.2098,0.2116,0.1976,0.1959,0.1857,0.1837,0.2191,0.2191,0.219,0.219,0,0.1961,0.1982,0.1967,0.1968,0.1963,0.194,0.1902,0.1865,0.1848,0.1801,0.1795,0.1794,0.1829,0.1897,0.1992,0.201,0.198,0.2082,0.1911,0.1904,0.1725,0.171,0.1591,0.1574,0.2038,0.2036,0.2034,0,0.1932,0.1931,0.1944,0.1934,0.1929,0.1899,0.1871,0.185,0.181,0.1771,0.1745,0.1754,0.1748,0.182,0.1848,0.1924,0.1908,0.1809,0.1786,0.165,0.165,0.1659,0.1657,0.162,0.1615,0.1611,0.1608,0,0.1875,0.1893,0.1891,0.1889,0.1868,0.1835,0.1795,0.1767,0.1736,0.1699,0.1655,0.1649,0.1661,0.1602,0.1658,0.1705,0.164,0.1724,0.1619,0.1309,0.1271,0.1284,0.1678,0.1571,0.1574,0.1577,0.1579,0.1581,0.183,0.1826,0.1845,0.1832,0.1808,0.177,0.1731,0.1694,0.1642,0.157,0.1578,0.1506,0.1374,0.1402,0.1436,0.1262,0.1421,0.1194,0.1197,0.1228,0.1144,0.1447,0.1334,0.1336,0.1338,0.134,0.1342,0,0.178,0.1789,0.1779,0.1767,0.1725,0.1728,0.1673,0.1627,0.1567,0.1486,0.1436,0.1196,0.1057,0.0971,0.0765,0.0705,0.077,0.0683,0.0631,0.0672,0.0939,0.0846,0.0575,0.0575,0.0575,0.0575,0.0575,0.0575,0.1752,0.175,0.1759,0.1698,0.1674,0.1601,0.1568,0.1507,0.1434,0.1242,0.1067,0.099,0.0701,0.0369,0.0168,0.0203,0.0221,0.0191,0.0311,0.0427,0.0475,0.052,0.0423,0.0067,0.0067,-0.001,-0.0011,-0.0012]},{"header":{"parameterUnit":"m.s-1","parameterCategory":2,"la1":30.2991,"la2":30.254,"lo1":-89.0895,"lo2":-89.0444,"dy":0.0017,"dx":0.0017,"nx":28,"ny":28,"refTime":"2025-03-12T09:00:00:Z","depth":"0","parameterNumber":3,"parameterNumberName":"V-component_of_CURRENTS"},"data":[0,0,0,0,0,0,0,0,0,0,0,0,0,0,0,0,0,0,0,0,0,0,0,0,0,0,0,0,0,0,0,0,0,0,0,0,0,0,0,0,0,0,0,0,0,0,0,0,0,0,0,0,0,0,0,0,0,0,-0.0526,-0.0526,0,-0.0523,-0.0523,-0.0523,-0.0521,-0.0521,-0.0521,-0.0521,-0.0482,-0.0481,-0.048,0,0,0,0,0,0,0,0,0,0,0,0,0,-0.0522,-0.0522,-0.0526,-0.0526,-0.0526,-0.0523,-0.0523,-0.0523,-0.0521,-0.0521,-0.0521,-0.0521,-0.0483,-0.0481,-0.048,0,0,0,0,0,0,0,0,0,0,0,0,0,-0.0521,-0.0522,-0.0526,-0.0525,-0.0525,-0.0523,-0.0523,-0.0523,-0.0521,-0.0521,-0.0521,-0.0521,-0.0483,-0.0481,-0.048,-0.047,0,0,-0.0475,-0.0474,0,0,0,0,0,0,0,0,-0.0521,-0.0521,-0.0525,-0.0525,-0.0525,-0.0523,-0.0507,-0.0503,-0.0521,-0.0522,-0.0521,-0.0521,-0.0493,-0.049,-0.049,-0.0468,-0.0466,-0.0475,-0.0474,-0.0473,-0.0473,0,0,0,0,0,0,0,-0.0521,-0.0521,-0.0524,-0.0525,-0.0525,-0.0522,-0.0522,-0.0507,-0.0506,-0.0522,-0.0522,-0.0522,-0.0492,-0.0491,-0.0489,-0.0466,-0.0475,-0.0474,-0.0473,-0.0472,-0.0401,-0.04,0,0,0,0,0,0,-0.0523,-0.0521,-0.0524,-0.0524,-0.0523,-0.0522,-0.0522,-0.0523,-0.0507,-0.0505,-0.0522,-0.0522,-0.0494,-0.049,-0.0487,-0.0449,-0.0473,-0.0472,-0.0471,-0.0402,-0.0401,-0.04,0,0,0,0,0,0,-0.0523,-0.0523,-0.0525,-0.0523,-0.0523,-0.0522,-0.0523,-0.0523,-0.0521,-0.0508,-0.0505,-0.0521,-0.0494,-0.0489,-0.0468,-0.0449,-0.0471,-0.047,-0.0403,-0.0402,-0.0401,-0.0389,0,0,0,0,0,0,-0.0523,-0.0523,-0.0528,-0.0523,-0.0523,-0.0521,-0.0523,-0.0523,-0.0522,-0.0522,-0.0506,-0.0502,-0.0493,-0.047,-0.0466,-0.0447,-0.0469,-0.0404,-0.0403,-0.0401,-0.0391,-0.0387,-0.0385,0,0,0,0,0,-0.0523,-0.0531,-0.0528,-0.0528,-0.0528,-0.0521,-0.0521,-0.052,-0.0522,-0.0519,-0.0505,-0.0503,-0.0456,-0.0468,-0.0464,-0.0444,-0.0405,-0.0403,-0.0401,-0.0392,-0.0388,-0.0385,0,0,0,0,0,0,-0.0532,-0.0531,-0.0528,-0.0535,-0.0527,-0.0521,-0.0525,-0.052,-0.0509,-0.0508,-0.0495,-0.049,-0.0464,-0.0455,-0.0469,-0.0417,-0.0428,-0.0425,-0.0423,-0.0419,-0.0416,-0.0407,-0.0467,0,0,0,0,0,-0.0535,-0.054,-0.0533,-0.0537,-0.0536,-0.0528,-0.0527,-0.0522,-0.0512,-0.0508,-0.0494,-0.0474,-0.0452,-0.0437,-0.0421,-0.0394,-0.0366,-0.0376,-0.0373,-0.037,-0.0359,-0.03,-0.0291,-0.0393,-0.0393,-0.0393,0,0,-0.0539,-0.054,-0.0542,-0.0539,-0.0535,-0.0525,-0.0528,-0.0524,-0.0508,-0.0504,-0.0481,-0.0468,-0.0444,-0.0414,-0.04,-0.0403,-0.0327,-0.0368,-0.0366,-0.0356,-0.0297,-0.0287,-0.0278,-0.0392,-0.0392,-0.0392,0,0,-0.0545,-0.0549,-0.0553,-0.0545,-0.0538,-0.0529,-0.0526,-0.0515,-0.0505,-0.0481,-0.047,-0.0441,-0.0416,-0.0386,-0.0369,-0.0337,-0.0318,-0.0336,-0.0309,-0.0251,-0.0242,-0.0234,-0.0188,-0.0176,-0.0329,-0.0329,-0.0329,0,-0.0548,-0.055,-0.0551,-0.0547,-0.0538,-0.0528,-0.0518,-0.0504,-0.0483,-0.0464,-0.0472,-0.041,-0.0396,-0.034,-0.0331,-0.0329,-0.03,-0.0327,-0.0247,-0.0238,-0.023,-0.0185,-0.0171,-0.0329,-0.0329,-0.0329,-0.0329,0,-0.0557,-0.055,-0.0551,-0.0539,-0.0528,-0.0519,-0.0497,-0.048,-0.0466,-0.0444,-0.0396,-0.037,-0.0329,-0.032,-0.0317,-0.0249,-0.025,-0.0255,-0.0257,-0.0219,-0.0174,-0.016,-0.0327,-0.0328,-0.0328,-0.0328,0,0,-0.0574,-0.056,-0.0559,-0.0542,-0.0522,-0.051,-0.0481,-0.0445,-0.0414,-0.0388,-0.0338,-0.0299,-0.0283,-0.0262,-0.0247,-0.0198,-0.0122,-0.0203,-0.0201,-0.0159,0.0002,0.002,0.0037,-0.0115,-0.0113,-0.0111,0.0008,0,-0.0575,-0.057,-0.0557,-0.0527,-0.0515,-0.0488,-0.0457,-0.042,-0.0387,-0.0337,-0.0294,-0.0247,-0.026,-0.0235,-0.0188,-0.0136,-0.0084,-0.0153,-0.004,-0.0036,-0.0026,0.0054,0.0086,0.0197,0.0022,0.0024,0.0026,0,-0.0579,-0.0573,-0.056,-0.051,-0.0501,-0.048,-0.0423,-0.039,-0.032,-0.0292,-0.0237,-0.0206,-0.0128,-0.0149,-0.003,-0.0075,-0.0034,0.0002,0.0008,0.0033,0.0009,0.0132,0.0229,0.0217,0.0047,0.0046,0.0044,0,-0.0588,-0.0562,-0.0551,-0.0539,-0.0494,-0.0472,-0.044,-0.0378,-0.0332,-0.0258,-0.0211,-0.0134,-0.0074,-0.0013,0.0055,0.0019,0.0189,0.0149,0.0207,0.0208,0.0264,0.0266,0.0365,0.0242,0.0242,0.0241,0.0241,0,-0.0585,-0.0563,-0.0556,-0.0547,-0.0511,-0.0477,-0.0419,-0.0379,-0.0301,-0.0223,-0.0186,-0.0103,-0.0035,0.0062,0.0097,0.0212,0.0228,0.024,0.0255,0.0267,0.0268,0.0281,0.0268,0.0246,0.0245,0.0244,0.0243,0,-0.0571,-0.0575,-0.0551,-0.0525,-0.0512,-0.0484,-0.0408,-0.0355,-0.0295,-0.0188,-0.0158,-0.0049,0.0083,0.0153,0.0276,0.0285,0.0405,0.0404,0.0408,0.0422,0.0435,0.0422,0.0587,0.0631,0.0487,0.0488,0.0489,0,-0.055,-0.0549,-0.0542,-0.0525,-0.0508,-0.0465,-0.0421,-0.0359,-0.0294,-0.0143,-0.008,0.0064,0.0188,0.0366,0.0431,0.0526,0.051,0.0571,0.0506,0.0473,0.0469,0.0468,0.0492,0.0585,0.0587,0.0589,0.059,0,-0.0502,-0.0519,-0.051,-0.049,-0.0459,-0.041,-0.0344,-0.0296,-0.0195,-0.01,0.0057,0.0165,0.0347,0.0482,0.0588,0.0629,0.0595,0.0603,0.0588,0.0584,0.0577,0.0612,0.045,0.0603,0.0602,0.0601,0.06,0.06,-0.0453,-0.0452,-0.0454,-0.0425,-0.0394,-0.0333,-0.0268,-0.0195,-0.0081,0.0087,0.0157,0.0334,0.0467,0.0637,0.0691,0.074,0.0728,0.0712,0.0708,0.0716,0.0738,0.0598,0.0747,0.0747,0.0746,0.0746,0.0746,0,-0.0361,-0.0384,-0.037,-0.0331,-0.0276,-0.0275,-0.0187,-0.0112,0.0029,0.0153,0.0295,0.048,0.0628,0.0718,0.0794,0.0817,0.0839,0.0814,0.0812,0.0839,0.0738,0.0717,0.0844,0.0844,0.0844,0.0844,0.0844,0.0844,-0.0307,-0.0293,-0.0308,-0.0217,-0.0182,-0.0086,-0.0029,0.0052,0.014,0.0309,0.0432,0.052,0.0572,0.0732,0.0812,0.084,0.0875,0.0897,0.0903,0.0788,0.0776,0.0765,0.0742,0.0873,0.0873,0.1022,0.1023,0.1024]}],[{"header":{"parameterUnit":"m.s-1","parameterCategory":2,"la1":30.2991,"la2":30.254,"lo1":-89.0895,"lo2":-89.0444,"dy":0.0017,"dx":0.0017,"nx":28,"ny":28,"refTime":"2025-03-12T09:00:00:Z","depth":"2","parameterNumber":2,"parameterNumberName":"U-component_of_CURRENTS"},"data":[0,0,0,0,0,0,0,0,0,0,0,0,0,0,0,0,0,0,0,0,0,0,0,0,0,0,0,0,0,0,0,0,0,0,0,0,0,0,0,0,0,0,0,0,0,0,0,0,0,0,0,0,0,0,0,0,0,0,0.0114,0.0114,0,0.0059,0.0059,0.0058,0.0059,0.006,0.0061,0.0061,0.0046,0.0045,0.0044,0,0,0,0,0,0,0,0,0,0,0,0,0,0.0236,0.0234,0.0114,0.0114,0.0113,0.006,0.0059,0.0058,0.0059,0.006,0.0061,0.0062,0.0047,0.0045,0.0044,0,0,0,0,0,0,0,0,0,0,0,0,0,0.0182,0.0233,0.0114,0.0107,0.0106,0.006,0.0059,0.0058,0.0059,0.006,0.0061,0.0062,0.0047,0.0045,0.0044,0.0011,0,0,0.0039,0.0038,0,0,0,0,0,0,0,0,0.0185,0.0178,0.0109,0.0108,0.0106,0.0067,0.0096,0.0044,0.0059,0.0077,0.0061,0.0063,0.0056,0.0054,0.004,0.001,0.001,0.0039,0.0038,0.0037,0.0036,0,0,0,0,0,0,0,0.0189,0.018,0.0093,0.0108,0.0106,0.0112,0.0106,0.0086,0.0061,0.0075,0.0075,0.0069,0.0056,0.0042,0.004,0.001,0.0039,0.0037,0.0036,0.0036,0.0043,0.0044,0,0,0,0,0,0,0.0193,0.0183,0.0094,0.0091,0.015,0.0109,0.0102,0.0079,0.0061,0.0059,0.0068,0.0069,0.0044,0.0042,0.004,0.0068,0.0037,0.0035,0.0034,0.0042,0.0043,0.0044,0,0,0,0,0,0,0.0196,0.0185,0.0096,0.0138,0.0127,0.0106,0.008,0.0077,0.0085,0.0055,0.0054,0.0081,0.0045,0.0042,0.0044,0.0065,0.0035,0.0033,0.004,0.0042,0.0044,0.008,0,0,0,0,0,0,0.0199,0.0186,0.0182,0.0137,0.0124,0.008,0.0079,0.0075,0.0078,0.0079,0.0065,0.0064,0.0046,0.0047,0.0043,0.0062,0.0032,0.0039,0.0041,0.0043,0.0078,0.0083,0.0088,0,0,0,0,0,0.0204,0.0184,0.0181,0.0171,0.0114,0.008,0.0075,0.0064,0.0078,0.0077,0.0077,0.0065,0.0059,0.0046,0.0041,0.006,0.0038,0.004,0.0043,0.0075,0.0082,0.0088,0,0,0,0,0,0,0.0235,0.0181,0.0177,0.0143,0.0122,0.0081,0.0079,0.0076,0.0073,0.0085,0.0068,0.0065,0.0075,0.0065,0.0052,0.0072,0.0051,0.0053,0.0078,0.0084,0.0089,0.0093,0.003,0,0,0,0,0,0.0239,0.0211,0.017,0.0148,0.0139,0.0117,0.0107,0.0101,0.0086,0.0087,0.008,0.0081,0.0076,0.008,0.0068,0.0073,0.0107,0.0088,0.0094,0.0098,0.01,0.0187,0.0201,0.0053,0.0053,0.0053,0,0,0.0246,0.0214,0.0199,0.0154,0.0139,0.0119,0.0114,0.0102,0.0097,0.0085,0.009,0.0091,0.0081,0.0087,0.0092,0.0085,0.0159,0.0101,0.0105,0.0105,0.0192,0.0206,0.0219,0.0055,0.0054,0.0054,0,0,0.0239,0.0218,0.0195,0.0177,0.0154,0.0136,0.014,0.0114,0.0119,0.0116,0.0115,0.0137,0.012,0.0126,0.0124,0.0153,0.0179,0.0155,0.0187,0.0272,0.0285,0.0297,0.0367,0.0385,0.0164,0.0164,0.0164,0,0.0258,0.0213,0.0188,0.0165,0.0155,0.0148,0.0133,0.0126,0.0111,0.0122,0.0126,0.0144,0.0138,0.0159,0.0172,0.0164,0.0216,0.0162,0.0281,0.0293,0.0305,0.0373,0.0392,0.0166,0.0166,0.0166,0.0165,0,0.0225,0.0205,0.0194,0.016,0.0148,0.0136,0.0121,0.0128,0.014,0.0139,0.0172,0.0178,0.0196,0.0203,0.0192,0.0268,0.0279,0.0273,0.0266,0.0322,0.039,0.0409,0.0169,0.0168,0.0168,0.0167,0,0,0.0234,0.0181,0.0183,0.0172,0.0148,0.0133,0.0134,0.0131,0.0148,0.0164,0.0198,0.0211,0.0241,0.0243,0.0253,0.0324,0.045,0.0339,0.0343,0.0409,0.0646,0.0515,0.0524,0.0478,0.0482,0.0484,0.0663,0,0.0227,0.0185,0.0163,0.0146,0.0127,0.0126,0.0125,0.0131,0.0148,0.018,0.022,0.0252,0.0248,0.0279,0.0349,0.0419,0.0502,0.0402,0.0579,0.0584,0.0463,0.0541,0.0395,0.0529,0.0682,0.0685,0.0687,0,0.0208,0.0182,0.016,0.0138,0.0133,0.0132,0.0148,0.0146,0.0184,0.0205,0.0258,0.0286,0.0376,0.0375,0.0548,0.0491,0.0575,0.0635,0.0643,0.0519,0.0489,0.0497,0.0559,0.072,0.0717,0.0715,0.0713,0,0.0224,0.0187,0.0172,0.0163,0.0136,0.0148,0.0148,0.0169,0.0179,0.0242,0.0276,0.0366,0.0436,0.0554,0.0658,0.063,0.0856,0.0831,0.0796,0.0788,0.0692,0.0668,0.0978,0.0977,0.0977,0.0977,0.0976,0,0.0215,0.021,0.0185,0.0177,0.0181,0.0165,0.0188,0.0198,0.023,0.0258,0.0306,0.0361,0.0493,0.0613,0.0703,0.0804,0.0903,0.0817,0.0831,0.0698,0.0673,0.085,0.0833,0.0983,0.0982,0.098,0.0979,0,0.0233,0.0211,0.0199,0.0184,0.0187,0.0198,0.0204,0.0214,0.0249,0.0295,0.0323,0.0407,0.0562,0.0679,0.0879,0.0852,0.0966,0.0983,0.0799,0.0784,0.0833,0.0816,0.096,0.0957,0.0955,0.0952,0.0951,0,0.023,0.0225,0.0219,0.0223,0.0223,0.0233,0.0235,0.0237,0.0242,0.0318,0.034,0.0489,0.0565,0.0767,0.0749,0.0859,0.0996,0.0801,0.069,0.0835,0.0836,0.0822,0.0809,0.0606,0.0602,0.0598,0.0595,0,0.0238,0.025,0.0245,0.0253,0.0259,0.0251,0.0255,0.0257,0.0267,0.0319,0.0397,0.0467,0.0541,0.0551,0.0626,0.0664,0.0751,0.0722,0.099,0.0588,0.0503,0.0502,0.0501,0.0563,0.0566,0.0569,0.057,0.0572,0.0263,0.027,0.0276,0.029,0.0288,0.0285,0.0298,0.0296,0.0327,0.0378,0.0399,0.0445,0.0418,0.0411,0.045,0.0445,0.0489,0.0509,0.0521,0.0537,0.0419,0.0329,0.0336,0.0338,0.0339,0.0341,0.0342,0,0.0289,0.0308,0.031,0.0314,0.032,0.033,0.0319,0.0318,0.0373,0.036,0.0405,0.0274,0.0262,0.0315,0.0172,0.0127,0.0128,0.0214,0.0232,0.026,0.0286,0.0157,0.0006,0.0006,0.0006,0.0006,0,0,0.0301,0.0318,0.0316,0.0345,0.0372,0.0404,0.0422,0.0396,0.0361,0.0322,0.0282,0.025,0.0216,0.0098,0.0069,0.0043,0.017,0.0032,0.0281,0.0327,0.0354,0.041,0.0235,0,0,0,0,0]},{"header":{"parameterUnit":"m.s-1","parameterCategory":2,"la1":30.2991,"la2":30.254,"lo1":-89.0895,"lo2":-89.0444,"dy":0.0017,"dx":0.0017,"nx":28,"ny":28,"refTime":"2025-03-12T09:00:00:Z","depth":"2","parameterNumber":3,"parameterNumberName":"V-component_of_CURRENTS"},"data":[0,0,0,0,0,0,0,0,0,0,0,0,0,0,0,0,0,0,0,0,0,0,0,0,0,0,0,0,0,0,0,0,0,0,0,0,0,0,0,0,0,0,0,0,0,0,0,0,0,0,0,0,0,0,0,0,0,0,-0.0154,-0.0154,0,-0.0144,-0.0144,-0.0144,-0.0178,-0.0179,-0.018,-0.0181,-0.0239,-0.024,-0.024,0,0,0,0,0,0,0,0,0,0,0,0,0,-0.0166,-0.0166,-0.0154,-0.0154,-0.0154,-0.0144,-0.0144,-0.0144,-0.0178,-0.0179,-0.018,-0.0181,-0.0239,-0.024,-0.024,0,0,0,0,0,0,0,0,0,0,0,0,0,-0.016,-0.0166,-0.0154,-0.0169,-0.0171,-0.0144,-0.0144,-0.0144,-0.0178,-0.0179,-0.0181,-0.0182,-0.0239,-0.024,-0.0241,-0.0217,0,0,-0.0243,-0.0244,0,0,0,0,0,0,0,0,-0.016,-0.0159,-0.0167,-0.0168,-0.017,-0.0163,-0.0169,-0.0171,-0.0177,-0.0176,-0.0181,-0.0183,-0.0219,-0.0221,-0.0216,-0.022,-0.0222,-0.0244,-0.0244,-0.0245,-0.0245,0,0,0,0,0,0,0,-0.0161,-0.016,-0.0151,-0.0167,-0.0168,-0.0164,-0.0165,-0.0169,-0.0191,-0.0176,-0.0178,-0.0176,-0.022,-0.0215,-0.0218,-0.0223,-0.0244,-0.0244,-0.0245,-0.0245,-0.0278,-0.0278,0,0,0,0,0,0,-0.0161,-0.016,-0.0151,-0.0151,-0.0168,-0.0162,-0.0164,-0.0164,-0.0189,-0.0194,-0.0174,-0.0177,-0.0213,-0.0217,-0.022,-0.0247,-0.0245,-0.0245,-0.0246,-0.0278,-0.0278,-0.0278,0,0,0,0,0,0,-0.0161,-0.016,-0.0152,-0.0155,-0.0153,-0.0161,-0.0161,-0.0163,-0.0185,-0.0187,-0.0194,-0.0197,-0.0214,-0.0219,-0.0245,-0.0248,-0.0246,-0.0247,-0.0277,-0.0278,-0.0278,-0.0267,0,0,0,0,0,0,-0.0162,-0.016,-0.0172,-0.0155,-0.0153,-0.015,-0.016,-0.0162,-0.0179,-0.0184,-0.0208,-0.0214,-0.0215,-0.0244,-0.0246,-0.0249,-0.0247,-0.0277,-0.0277,-0.0278,-0.0267,-0.0267,-0.0267,0,0,0,0,0,-0.0162,-0.0169,-0.0173,-0.0173,-0.0165,-0.015,-0.0149,-0.016,-0.0179,-0.0186,-0.0207,-0.0214,-0.0249,-0.0245,-0.0247,-0.0251,-0.0277,-0.0277,-0.0278,-0.0267,-0.0267,-0.0267,0,0,0,0,0,0,-0.0185,-0.0172,-0.0177,-0.0182,-0.0174,-0.0156,-0.0167,-0.0172,-0.0191,-0.0209,-0.0217,-0.0223,-0.0245,-0.0252,-0.0247,-0.0263,-0.0264,-0.0265,-0.0255,-0.0255,-0.0255,-0.0232,-0.0248,0,0,0,0,0,-0.0192,-0.0195,-0.0179,-0.0186,-0.0185,-0.0181,-0.0182,-0.0188,-0.0194,-0.0206,-0.022,-0.0238,-0.0242,-0.0255,-0.0262,-0.0272,-0.0252,-0.0277,-0.0277,-0.0277,-0.0261,-0.0227,-0.0222,-0.028,-0.028,-0.028,0,0,-0.0203,-0.0197,-0.02,-0.0191,-0.019,-0.0182,-0.0187,-0.0195,-0.0191,-0.0208,-0.0228,-0.0241,-0.0246,-0.0254,-0.0265,-0.0266,-0.0253,-0.0278,-0.0277,-0.0261,-0.0227,-0.0221,-0.0216,-0.0281,-0.0281,-0.0281,0,0,-0.0213,-0.0222,-0.0224,-0.0216,-0.0214,-0.0203,-0.0211,-0.0207,-0.0216,-0.0226,-0.0236,-0.0246,-0.0268,-0.0257,-0.0256,-0.026,-0.0252,-0.0279,-0.0261,-0.0229,-0.0223,-0.0218,-0.0192,-0.0184,-0.028,-0.028,-0.028,0,-0.0232,-0.0226,-0.0223,-0.0219,-0.0213,-0.0215,-0.0211,-0.0208,-0.0216,-0.0212,-0.0239,-0.0242,-0.0258,-0.0236,-0.0244,-0.0257,-0.0244,-0.0259,-0.0226,-0.022,-0.0215,-0.019,-0.0181,-0.0279,-0.0279,-0.0279,-0.0279,0,-0.0231,-0.0234,-0.0235,-0.0227,-0.0219,-0.0219,-0.0206,-0.0211,-0.0226,-0.0216,-0.0216,-0.0225,-0.0223,-0.0233,-0.0244,-0.0215,-0.022,-0.0227,-0.0221,-0.0208,-0.0183,-0.0174,-0.0279,-0.0279,-0.0279,-0.0279,0,0,-0.0255,-0.0239,-0.0243,-0.0235,-0.0225,-0.0215,-0.0208,-0.0187,-0.0176,-0.019,-0.0164,-0.0179,-0.0185,-0.0184,-0.0195,-0.0172,-0.0136,-0.0191,-0.019,-0.0155,-0.007,-0.0037,-0.0024,-0.0141,-0.014,-0.0138,-0.007,0,-0.026,-0.0252,-0.0239,-0.0228,-0.022,-0.0209,-0.0194,-0.0178,-0.017,-0.0147,-0.0141,-0.0135,-0.0165,-0.0172,-0.015,-0.0131,-0.0112,-0.0154,-0.0096,-0.0094,-0.0057,-0.0012,-0.0078,-0.0019,-0.0062,-0.006,-0.0059,0,-0.0263,-0.0254,-0.0253,-0.0219,-0.0215,-0.0215,-0.0185,-0.0169,-0.013,-0.0124,-0.0104,-0.0097,-0.0064,-0.0101,-0.0044,-0.0072,-0.0074,-0.0062,-0.0059,-0.002,-0.0043,-0.0039,-0.0002,-0.0045,-0.0046,-0.0047,-0.0048,0,-0.0278,-0.0258,-0.0259,-0.0252,-0.0222,-0.0226,-0.0214,-0.0179,-0.0153,-0.0115,-0.0089,-0.0048,-0.0028,-0.0007,0.0011,-0.002,0.0084,0.0045,0.0077,0.0078,0.0041,0.0038,0.0082,0.0082,0.0082,0.0081,0.0081,0,-0.0279,-0.0278,-0.0277,-0.0278,-0.0272,-0.0249,-0.0234,-0.0212,-0.0164,-0.0111,-0.0091,-0.0027,-0.0006,0.0055,0.0052,0.0113,0.0116,0.0105,0.0111,0.0041,0.0037,0.0027,0.0019,0.0084,0.0083,0.0083,0.0083,0,-0.0295,-0.0295,-0.0295,-0.0286,-0.0287,-0.0291,-0.0261,-0.0232,-0.0193,-0.012,-0.0107,-0.0005,0.0091,0.0125,0.0185,0.0174,0.0218,0.0225,0.0145,0.0142,0.0175,0.0167,0.0277,0.0279,0.0281,0.0282,0.0283,0,-0.0297,-0.0305,-0.0319,-0.0325,-0.0334,-0.0332,-0.0319,-0.0272,-0.0224,-0.0088,-0.0038,0.0075,0.0202,0.0319,0.0302,0.0333,0.0303,0.0269,0.0203,0.0207,0.0201,0.019,0.018,0.0145,0.0145,0.0144,0.0144,0,-0.0297,-0.0325,-0.0331,-0.0353,-0.0361,-0.0335,-0.0309,-0.0262,-0.0171,-0.008,0.0093,0.0213,0.0326,0.0364,0.0381,0.0378,0.0263,0.0272,0.0314,0.0114,0.009,0.0081,0.0074,0.0144,0.0144,0.0144,0.0144,0.0144,-0.0312,-0.0326,-0.0353,-0.0367,-0.0367,-0.0324,-0.0277,-0.0201,-0.009,0.0077,0.0188,0.0346,0.0352,0.0397,0.0393,0.0328,0.0327,0.0254,0.025,0.0247,0.0228,0.021,0.0283,0.0283,0.0284,0.0285,0.0285,0,-0.0309,-0.0336,-0.035,-0.0347,-0.0317,-0.0336,-0.0247,-0.0169,-0.0009,0.0111,0.028,0.0333,0.0389,0.0382,0.0266,0.025,0.0218,0.0247,0.0162,0.0161,0.0161,0.0134,0.0165,0.0165,0.0166,0.0166,0,0,-0.0307,-0.0324,-0.0329,-0.0292,-0.029,-0.0232,-0.0173,-0.0066,0.0029,0.0179,0.0252,0.0399,0.0377,0.0285,0.0241,0.0174,0.0181,0.0183,0.0268,0.0167,0.0167,0.0143,0.01,0,0,0,0,0]}],[{"header":{"parameterUnit":"m.s-1","parameterCategory":2,"la1":30.2991,"la2":30.254,"lo1":-89.0895,"lo2":-89.0444,"dy":0.0017,"dx":0.0017,"nx":28,"ny":28,"refTime":"2025-03-12T09:00:00:Z","depth":"4","parameterNumber":2,"parameterNumberName":"U-component_of_CURRENTS"},"data":[0,0,0,0,0,0,0,0,0,0,0,0,0,0,0,0,0,0,0,0,0,0,0,0,0,0,0,0,0,0,0,0,0,0,0,0,0,0,0,0,0,0,0,0,0,0,0,0,0,0,0,0,0,0,0,0,0,0,-0.0565,-0.0565,0,-0.0569,-0.0569,-0.0569,-0.0576,-0.0576,-0.0576,-0.0576,-0.0598,-0.0599,-0.0599,0,0,0,0,0,0,0,0,0,0,0,0,0,-0.0547,-0.0547,-0.0565,-0.0565,-0.0565,-0.0569,-0.0569,-0.0569,-0.0576,-0.0576,-0.0576,-0.0576,-0.0598,-0.0599,-0.0599,0,0,0,0,0,0,0,0,0,0,0,0,0,-0.0553,-0.0547,-0.0565,-0.0568,-0.0569,-0.0569,-0.0569,-0.0569,-0.0576,-0.0576,-0.0576,-0.0576,-0.0598,-0.0599,-0.0599,-0.06,0,0,-0.0602,-0.0602,0,0,0,0,0,0,0,0,-0.0553,-0.0554,-0.0568,-0.0568,-0.0569,-0.0572,-0.0571,-0.0581,-0.0576,-0.0573,-0.0576,-0.0576,-0.0591,-0.0592,-0.0593,-0.0602,-0.0602,-0.0602,-0.0602,-0.0603,-0.0603,0,0,0,0,0,0,0,-0.0552,-0.0553,-0.0566,-0.0568,-0.0568,-0.0565,-0.0566,-0.0573,-0.0581,-0.0573,-0.0574,-0.0574,-0.0592,-0.0592,-0.0593,-0.0603,-0.0602,-0.0602,-0.0603,-0.0603,-0.0662,-0.0663,0,0,0,0,0,0,-0.0553,-0.0553,-0.0566,-0.0566,-0.0561,-0.0565,-0.0567,-0.0571,-0.0581,-0.0582,-0.0574,-0.0575,-0.0591,-0.0592,-0.0594,-0.0605,-0.0603,-0.0603,-0.0604,-0.0661,-0.0662,-0.0664,0,0,0,0,0,0,-0.0552,-0.0554,-0.0566,-0.056,-0.0561,-0.0565,-0.057,-0.0571,-0.0581,-0.0581,-0.0583,-0.0585,-0.0591,-0.0593,-0.0606,-0.0606,-0.0604,-0.0604,-0.066,-0.0661,-0.0663,-0.0622,0,0,0,0,0,0,-0.0552,-0.0554,-0.0562,-0.056,-0.0561,-0.0573,-0.057,-0.0571,-0.0581,-0.0582,-0.0591,-0.0593,-0.0591,-0.0605,-0.0606,-0.0607,-0.0605,-0.0658,-0.0661,-0.0663,-0.0622,-0.0622,-0.0622,0,0,0,0,0,-0.0551,-0.056,-0.0562,-0.0564,-0.0571,-0.0573,-0.0574,-0.0577,-0.0581,-0.0587,-0.0592,-0.0593,-0.062,-0.0605,-0.0608,-0.0608,-0.0657,-0.066,-0.0662,-0.0622,-0.0622,-0.0622,0,0,0,0,0,0,-0.0556,-0.0561,-0.0564,-0.0574,-0.0577,-0.0574,-0.0583,-0.0584,-0.0592,-0.0598,-0.0597,-0.0599,-0.062,-0.0625,-0.0609,-0.0638,-0.0643,-0.0646,-0.0612,-0.0612,-0.0612,-0.0577,-0.0605,0,0,0,0,0,-0.0561,-0.0573,-0.0571,-0.0583,-0.0585,-0.0586,-0.059,-0.0592,-0.0596,-0.06,-0.0608,-0.0621,-0.0631,-0.0629,-0.065,-0.065,-0.067,-0.0659,-0.0659,-0.0659,-0.0636,-0.0656,-0.0655,-0.0672,-0.0672,-0.0672,0,0,-0.0566,-0.0572,-0.0579,-0.0585,-0.059,-0.0593,-0.059,-0.0599,-0.0609,-0.0602,-0.0624,-0.0629,-0.0638,-0.0646,-0.0655,-0.0645,-0.0678,-0.0662,-0.0661,-0.0637,-0.0659,-0.0656,-0.0654,-0.0674,-0.0673,-0.0673,0,0,-0.0578,-0.0589,-0.0599,-0.0601,-0.0609,-0.0608,-0.0614,-0.0618,-0.0629,-0.0645,-0.0645,-0.0643,-0.0669,-0.0657,-0.0657,-0.0673,-0.069,-0.0689,-0.0638,-0.0659,-0.0657,-0.0654,-0.0722,-0.0726,-0.0672,-0.0672,-0.0672,0,-0.0584,-0.0595,-0.0602,-0.0608,-0.0613,-0.0617,-0.0623,-0.0634,-0.0644,-0.0651,-0.0658,-0.067,-0.0674,-0.0657,-0.0644,-0.067,-0.0693,-0.0629,-0.0655,-0.0653,-0.0652,-0.072,-0.0725,-0.0671,-0.0671,-0.0671,-0.0671,0,-0.0596,-0.0607,-0.0614,-0.0625,-0.0632,-0.0639,-0.0648,-0.0673,-0.0688,-0.0681,-0.069,-0.0679,-0.0664,-0.0678,-0.0651,-0.0633,-0.0662,-0.0663,-0.0643,-0.0646,-0.0721,-0.0727,-0.0668,-0.0669,-0.0669,-0.067,0,0,-0.0594,-0.0618,-0.062,-0.0631,-0.064,-0.0649,-0.0679,-0.0692,-0.0706,-0.0707,-0.0709,-0.0687,-0.0643,-0.0637,-0.0608,-0.0604,-0.0618,-0.0599,-0.0601,-0.0646,-0.0689,-0.0615,-0.0616,-0.0608,-0.0608,-0.0608,-0.0761,0,-0.0598,-0.0614,-0.0627,-0.0648,-0.0653,-0.0678,-0.0702,-0.0717,-0.0727,-0.0734,-0.0707,-0.0684,-0.0638,-0.0601,-0.0585,-0.0618,-0.0623,-0.0578,-0.0695,-0.07,-0.0615,-0.0615,-0.0607,-0.0765,-0.0766,-0.0767,-0.0768,0,-0.0598,-0.0609,-0.0627,-0.0661,-0.0668,-0.0693,-0.0733,-0.0739,-0.0745,-0.0738,-0.0688,-0.0661,-0.0617,-0.0588,-0.0618,-0.0585,-0.0609,-0.0647,-0.0654,-0.0589,-0.0632,-0.0754,-0.0779,-0.0778,-0.0777,-0.0776,-0.0776,0,-0.0583,-0.0611,-0.063,-0.0637,-0.0672,-0.0714,-0.073,-0.0747,-0.0744,-0.0704,-0.0699,-0.0648,-0.0636,-0.0639,-0.0675,-0.0635,-0.0763,-0.0737,-0.0712,-0.0712,-0.0752,-0.0752,-0.0759,-0.0758,-0.0758,-0.0758,-0.0757,0,-0.0574,-0.0592,-0.0636,-0.0647,-0.0689,-0.0701,-0.0725,-0.0742,-0.0727,-0.0701,-0.0658,-0.0632,-0.0638,-0.0701,-0.0711,-0.0739,-0.0795,-0.0693,-0.0724,-0.0742,-0.0739,-0.0759,-0.0757,-0.0763,-0.0762,-0.0761,-0.076,0,-0.0554,-0.0579,-0.0601,-0.0653,-0.0685,-0.0701,-0.0729,-0.0723,-0.0711,-0.0685,-0.0656,-0.0649,-0.067,-0.0743,-0.0807,-0.0796,-0.0837,-0.0842,-0.0911,-0.0947,-0.0766,-0.0761,-0.0792,-0.0791,-0.0789,-0.0788,-0.0787,0,-0.0547,-0.0554,-0.0607,-0.0632,-0.067,-0.0694,-0.0711,-0.0705,-0.0686,-0.0678,-0.0668,-0.0687,-0.0673,-0.0749,-0.0793,-0.0859,-0.0833,-0.0897,-0.0735,-0.0732,-0.076,-0.0757,-0.0754,-0.0784,-0.0784,-0.0783,-0.0783,0,-0.0524,-0.0545,-0.056,-0.0612,-0.0652,-0.0659,-0.0688,-0.0661,-0.0631,-0.0661,-0.0613,-0.06,-0.0651,-0.0668,-0.0761,-0.0789,-0.0866,-0.0879,-0.0879,-0.0727,-0.0723,-0.0751,-0.075,-0.0777,-0.0778,-0.0779,-0.0779,0,-0.0509,-0.0508,-0.0537,-0.0576,-0.062,-0.0613,-0.0619,-0.06,-0.0574,-0.057,-0.056,-0.058,-0.0622,-0.0635,-0.0709,-0.074,-0.0677,-0.0662,-0.0672,-0.0679,-0.0564,-0.0537,-0.0548,0,0,0,0,0,-0.0484,-0.0476,-0.0506,-0.0525,-0.0562,-0.0593,-0.0605,-0.0593,-0.0591,-0.0533,-0.0531,-0.054,-0.0545,-0.0569,-0.0568,-0.0657,-0.0707,-0.0657,-0.07,-0.0747,-0.0754,-0.0624,0,0,0,0,0,0,-0.0467,-0.0483,-0.048,-0.0479,-0.049,-0.051,-0.0509,-0.0505,-0.047,-0.0479,-0.0482,-0.052,-0.0542,-0.0539,-0.0559,-0.0575,-0.0593,-0.0691,-0.069,-0.0744,-0.075,-0.0755,-0.0624,0,0,0,0,0]},{"header":{"parameterUnit":"m.s-1","parameterCategory":2,"la1":30.2991,"la2":30.254,"lo1":-89.0895,"lo2":-89.0444,"dy":0.0017,"dx":0.0017,"nx":28,"ny":28,"refTime":"2025-03-12T09:00:00:Z","depth":"4","parameterNumber":3,"parameterNumberName":"V-component_of_CURRENTS"},"data":[0,0,0,0,0,0,0,0,0,0,0,0,0,0,0,0,0,0,0,0,0,0,0,0,0,0,0,0,0,0,0,0,0,0,0,0,0,0,0,0,0,0,0,0,0,0,0,0,0,0,0,0,0,0,0,0,0,0,0.0408,0.0408,0,0.0432,0.0432,0.0432,0.0453,0.0453,0.0454,0.0454,0.049,0.049,0.0491,0,0,0,0,0,0,0,0,0,0,0,0,0,0.0373,0.0374,0.0408,0.0408,0.0409,0.0432,0.0432,0.0432,0.0453,0.0453,0.0454,0.0454,0.0489,0.049,0.0491,0,0,0,0,0,0,0,0,0,0,0,0,0,0.039,0.0374,0.0408,0.0424,0.0425,0.0432,0.0432,0.0432,0.0453,0.0453,0.0454,0.0455,0.0489,0.049,0.0491,0.0483,0,0,0.0493,0.0494,0,0,0,0,0,0,0,0,0.0389,0.0391,0.0421,0.0423,0.0425,0.0442,0.0433,0.045,0.0453,0.044,0.0454,0.0455,0.0476,0.0478,0.0477,0.0484,0.0486,0.0493,0.0494,0.0494,0.0494,0,0,0,0,0,0,0,0.0388,0.039,0.0415,0.0421,0.0424,0.0427,0.043,0.0436,0.0452,0.0441,0.0443,0.0449,0.0477,0.0477,0.0478,0.0486,0.0493,0.0494,0.0494,0.0495,0.0564,0.0565,0,0,0,0,0,0,0.0389,0.0389,0.0414,0.0416,0.041,0.0428,0.0431,0.0434,0.0452,0.0456,0.0449,0.045,0.0475,0.0477,0.048,0.0533,0.0494,0.0495,0.0495,0.0562,0.0564,0.0565,0,0,0,0,0,0,0.0388,0.0391,0.0413,0.0405,0.0408,0.0428,0.0431,0.0434,0.0448,0.0458,0.0462,0.0461,0.0475,0.0479,0.0482,0.0533,0.0495,0.0496,0.0561,0.0563,0.0565,0.0601,0,0,0,0,0,0,0.0387,0.039,0.0394,0.0405,0.0409,0.0421,0.0431,0.0434,0.0451,0.0453,0.047,0.0473,0.0476,0.0481,0.0483,0.0533,0.0497,0.0559,0.0562,0.0564,0.0598,0.0604,0.0609,0,0,0,0,0,0.0385,0.0387,0.0394,0.0397,0.0413,0.0421,0.0423,0.0438,0.0451,0.0453,0.0459,0.0473,0.0501,0.0481,0.0484,0.0536,0.0558,0.0561,0.0564,0.0595,0.0603,0.0609,0,0,0,0,0,0,0.0373,0.039,0.0397,0.0404,0.0414,0.0426,0.0432,0.0444,0.0451,0.0455,0.0466,0.0469,0.051,0.0504,0.0483,0.0565,0.0542,0.0545,0.0565,0.0572,0.0578,0.0534,0.0497,0,0,0,0,0,0.0372,0.0379,0.0394,0.0399,0.0406,0.0421,0.0429,0.0438,0.0446,0.0451,0.0465,0.0486,0.0523,0.0528,0.0553,0.0569,0.0537,0.0612,0.0618,0.0622,0.059,0.0544,0.0541,0.0575,0.0575,0.0575,0,0,0.0367,0.038,0.0383,0.0398,0.0408,0.041,0.0427,0.0439,0.0444,0.0453,0.0467,0.0508,0.0534,0.0571,0.0589,0.0568,0.061,0.0626,0.063,0.0594,0.0546,0.0542,0.0539,0.0577,0.0577,0.0577,0,0,0.0361,0.0375,0.0378,0.0385,0.0402,0.0409,0.0415,0.0433,0.0447,0.0466,0.0493,0.0535,0.0579,0.0599,0.0619,0.066,0.0651,0.0705,0.0682,0.064,0.0635,0.063,0.0639,0.0635,0.0694,0.0694,0.0694,0,0.0355,0.036,0.0379,0.0381,0.0384,0.0409,0.0406,0.042,0.0438,0.0454,0.0477,0.0555,0.0589,0.0622,0.0653,0.0672,0.0655,0.0657,0.0642,0.0637,0.0631,0.0641,0.0635,0.0696,0.0696,0.0696,0.0695,0,0.0348,0.0352,0.0355,0.0364,0.0367,0.0371,0.0388,0.0413,0.0449,0.0466,0.0523,0.0558,0.0603,0.0649,0.0667,0.0674,0.0681,0.0664,0.0617,0.0629,0.0641,0.0634,0.0699,0.0698,0.0698,0.0697,0,0,0.0332,0.0346,0.0348,0.0343,0.0358,0.0356,0.0381,0.0404,0.0423,0.0468,0.0482,0.0574,0.0603,0.0625,0.0664,0.0629,0.0622,0.063,0.0627,0.0624,0.0557,0.0518,0.0507,0.0593,0.059,0.0589,0.06,0,0.0321,0.0318,0.0328,0.0316,0.0311,0.0341,0.0361,0.0388,0.0425,0.0445,0.0493,0.0537,0.059,0.0631,0.0604,0.0611,0.0597,0.0622,0.0556,0.0555,0.0503,0.0494,0.0582,0.0595,0.0593,0.0592,0.0591,0,0.0309,0.0306,0.03,0.0297,0.03,0.032,0.0354,0.0376,0.0419,0.0447,0.0484,0.0506,0.0518,0.0542,0.0526,0.0538,0.0552,0.0544,0.0544,0.0472,0.05,0.0568,0.0579,0.058,0.0581,0.0582,0.0582,0,0.0286,0.028,0.0276,0.0273,0.0285,0.0324,0.0364,0.0411,0.0421,0.0463,0.0455,0.047,0.0482,0.0466,0.0497,0.0502,0.0447,0.0454,0.0435,0.0436,0.0453,0.0457,0.0418,0.0418,0.0418,0.0418,0.0418,0,0.0268,0.0256,0.0285,0.0284,0.0303,0.0333,0.038,0.042,0.0449,0.0419,0.047,0.0414,0.0451,0.0431,0.0457,0.0428,0.0428,0.0412,0.0412,0.0481,0.0487,0.0452,0.0456,0.0419,0.0419,0.0418,0.0418,0,0.0242,0.0257,0.0242,0.0273,0.03,0.0332,0.0404,0.0419,0.046,0.0413,0.0418,0.0378,0.0335,0.0378,0.0357,0.0377,0.0361,0.0364,0.0469,0.0479,0.0396,0.0402,0.0313,0.0312,0.031,0.0309,0.0308,0,0.0227,0.0225,0.0241,0.0262,0.0298,0.0363,0.0405,0.045,0.0424,0.0353,0.0284,0.0252,0.0226,0.0205,0.0232,0.029,0.0301,0.0338,0.0327,0.0364,0.0374,0.0383,0.0391,0.0305,0.0305,0.0304,0.0304,0,0.0187,0.0203,0.019,0.0246,0.0292,0.0309,0.0357,0.0316,0.0304,0.0308,0.0187,0.0175,0.0114,0.0131,0.0211,0.0234,0.0324,0.0321,0.0324,0.0314,0.0353,0.0367,0.0376,0.0298,0.0299,0.03,0.03,0,0.0155,0.0143,0.0158,0.0204,0.0264,0.0262,0.0273,0.024,0.0222,0.0137,0.0076,0.0055,0.006,0.0094,0.0125,0.0185,0.0179,0.0223,0.0231,0.0238,0.0207,0.0246,0.0133,0,0,0,0,0,0.0123,0.0114,0.0134,0.0157,0.0223,0.0265,0.0233,0.0216,0.016,0.0082,0.0096,0.0045,0.0059,0.0043,0.0091,0.0061,0.0174,0.0115,0.0227,0.0268,0.0275,0.0246,0,0,0,0,0,0,0.0095,0.0096,0.0101,0.0142,0.0183,0.0212,0.0202,0.0137,0.0094,0.0056,0.0069,0.0086,0.0105,0.007,0.0112,0.0116,0.0194,0.0131,0.0132,0.0265,0.027,0.0275,0.0248,0,0,0,0,0]}]]